Skip Page Navigation
NASA JPL Caltech
NASA Logo - Jet Propulsion Laboratory + View the NASA Portal
+ Center for Near-Earth Object Studies
JPL Home Earth Solar System Stars & Galaxies Technology
JPL Solar System Dynamics
BODIES ORBITS EPHEMERIDES TOOLS PHYSICAL DATA DISCOVERY FAQ SITE MAP
IMPORTANT: The SSD Announcement email list is now available. Major changes are coming in the near future, including possible hostname and/or URL changes. To be notified of such changes, subscribe to this email list.

Please visit this page for more details.


JPL Small-Body Database Browser
Search: [ help ]  
441352 (2008 DS5)
Classification: Main-belt Asteroid          SPK-ID: 2441352
Ephemeris | Orbit Diagram | Orbital Elements | Mission Design | Physical Parameters | Discovery Circumstances ]

[ show orbit diagram ]
Orbital Elements at Epoch 2458600.5 (2019-Apr-27.0) TDB
Reference: JPL 12 (heliocentric ecliptic J2000)
 Element Value Uncertainty (1-sigma)   Units 
e .06816480816667356 9.0184e-08  
a 2.751365020159954 4.1661e-08 au
q 2.563818751364254 2.5015e-07 au
i 10.99584249662469 9.6217e-06 deg
node 303.6298616181743 3.5957e-05 deg
peri 127.0605632309096 0.00011453 deg
M 211.4812950395256 0.00010491 deg
tp 2459288.200590147702
(2021-Mar-14.70059015)
0.00049327 TDB
period 1666.942978792196
4.56
3.7861e-05
1.037e-07
d
yr
n .2159641958843981 4.9052e-09 deg/d
Q 2.938911288955652 4.4501e-08 au
  Orbit Determination Parameters
   # obs. used (total)      130  
   data-arc span      7478 days (20.47 yr)  
   first obs. used      1999-01-11  
   last obs. used      2019-07-03  
   planetary ephem.      DE431  
   SB-pert. ephem.      SB431-N16  
   condition code      0  
   norm. resid. RMS      .62954  
   source      ORB  
   producer      Otto Matic  
   solution date      2019-Sep-24 07:42:02  

Additional Information
 Earth MOID = 1.5955 au 
 Jupiter MOID = 2.24734 au 
 T_jup = 3.315 
[ show covariance matrix ]

Ephemeris | Orbit Diagram | Orbital Elements | Mission Design | Physical Parameters | Discovery Circumstances ]

Physical Parameter Table
Parameter Symbol Value Units Sigma Reference Notes
absolute magnitude H 16.5   n/a MPO397571  

441352 (2008 DS5)          Discovered 1999-Jan-11 by Spacewatch at Kitt Peak
Reference: Last Updated: 2015-09-02

Alternate Designations
 2008 DS5 = 1999 AN17 = 2006 SA139 = 2013 CO189 
Ephemeris | Orbit Diagram | Orbital Elements | Mission Design | Physical Parameters | Discovery Circumstances ]
ABOUT SSD CREDITS/AWARDS PRIVACY/COPYRIGHT GLOSSARY LINKS
FirstGov 2019-Dec-12 08:39 UT
(server date/time)  
NASA Home Page
Site Manager:   Ryan S. Park
Webmaster  Alan B. Chamberlin